Location: East Irvine
(33.6759°N, 117.7598°W)
Time: 00:41:43
(UTC+00:00)

Tsikada Rocket - Pass Details

Date: 15 November 2025
Orbit: 958 x 1008 km, 82.9° (Epoch: 06 December)

Event Time Altitude Azimuth Distance (km) Brightness Sun altitude
Rises 01:10:26 0° 357° (N) 3,740 6.9 -5.1°
Reaches altitude 10° 01:13:02 10° 1° (N) 2,784 6.2 -5.6°
Maximum altitude 01:19:23 64° 82° (E) 1,096 4.1 -6.9°
Drops below altitude 10° 01:25:37 10° 164° (SSE) 2,743 6.4 -8.1°
Sets 01:28:09 0° 167° (SSE) 3,681 7.1 -8.6°
